Regional Weather Roundup
Issued by NWS

Home | Current Version | Previous Version | Text Only | Print | Product List | Glossary Off
Versions: 1 2 3 4 5 6 7 8 9 10 11 12 13 14 15 16 17 18 19 20 21 22 23 24 25 26 27 28 29 30 31 32 33 34 35 36 37 38 39 40 41 42 43 44 45 46 47 48 49 50

000
ASUS43 KLMK 221610
RWRKY
KENTUCKY REGIONAL WEATHER ROUNDUP
NATIONAL WEATHER SERVICE LOUISVILLE KY
1200 PM EDT THU JUN 22 2017

NOTE "FAIR" INDICATES FEW OR NO CLOUDS BELOW 12,000 FEET
WITH NO SIGNIFICANT WEATHER AND/OR OBSTRUCTIONS TO VISIBILITY.

KYZ001>023-026-027-061>063-070>075-221700-
WESTERN AND SOUTH CENTRAL KENTUCKY

CITY           SKY/WX    TMP DP  RH WIND       PRES   REMARKS
PADUCAH        PTSUNNY   79  70  74 S9G22     29.90F
HENDERSON      CLOUDY    77  70  79 S16       29.96F
OWENSBORO      LGT RAIN  74  71  91 S13       29.99R FOG
HOPKINSVILLE   RAIN      72  72 100 SE13      29.96F FOG
BOWLING GREEN  RAIN      73  72  96 SE8       30.03S FOG
GLASGOW        RAIN      71  71 100 SE7       30.04F
$$

KYZ024-025-028>034-038-045-046-053-221700-
NORTH CENTRAL KENTUCKY

CITY           SKY/WX    TMP DP  RH WIND       PRES   REMARKS
LOUISVILLE/SDF CLOUDY    80  68  66 S16       30.02R
LOUISVILLE/LOU CLOUDY    81  70  69 S12G20    30.02S
FORT KNOX      LGT RAIN  76  69  78 S18G30    30.02S
$$

KYZ035>037-039>044-047>052-055>060-089>105-221700-
NORTHEAST KENTUCKY

CITY           SKY/WX    TMP DP  RH WIND       PRES   REMARKS
LEXINGTON      CLOUDY    79  67  66 S10       30.08R
COVINGTON      CLOUDY    78  70  76 S8        30.03F
FRANKFORT      CLOUDY    79  67  66 S13       30.05R
$$

KYZ054-064>069-076>088-106>120-221700-
SOUTHEAST KENTUCKY

CITY           SKY/WX    TMP DP  RH WIND       PRES   REMARKS
JACKSON        LGT RAIN  74  68  81 VRB3      30.12R
LONDON         RAIN      71  67  87 S9        30.13R FOG
SOMERSET       RAIN      70  70 100 S3        30.12S
MIDDLESBORO    LGT RAIN  72  71  96 CALM      30.15S
MONTICELLO     LGT RAIN  72  69  90 VRB5      30.12S
$$





USA.gov is the U.S. government's official web portal to all federal, state and local government web resources and services.